Vertical_Velocity
1 -2 2 -4 -1 -2 2 3 0 -0 1 1 -0 -3 -0 -2 1 -0 0 0 -2 1 -1 -2 -1 3 -1 0 -15 4 2 4 -2 -4 -3 -2 2 1 -0 1 1 6 -4 1 -2 -2 0
6 -2 -0 1 -3 -3 -2 3 3 -1 0 1 1 -1 -1 1 -4 2 -1 3 -1 -2 1 -1 0 2 -2 5 -0 2 -5 5 -1 -0 -0 1 -8 1 1 -2 6 -2 1 -5 -2 -1 0
9 21 -3 -1 0 0 -2 -1 3 2 -0 1 -1 2 -2 1 -0 -0 -0 -1 1 1 1 -2 2 -2 -1 -39 -2 15 1 -10 2 -2 7 -1 -2 12 5 -1 3 -3 4 -0 -3 -5 -4
4 1 8 -1 -1 -0 0 -1 1 1 1 1 2 2 2 -1 0 -0 -3 -2 2 1 -4 -0 2 1 -12 -12 -9 2 8 6 9 -6 -4 2 9 8 11 -1 -5 1 4 6 -6 1 -12
-2 -1 -3 16 2 -1 -2 -1 -0 1 1 2 4 -1 -1 2 1 1 0 -4 -1 0 1 -1 1 2 -12 -2 -7 1 5 -0 -2 -0 -11 -6 9 -2 3 2 1 -0 -1 1 -4 -1 -0
-1 -5 0 4 -1 0 -0 -1 1 0 -0 3 -2 1 0 0 0 -1 4 -0 1 -1 0 3 6 7 -1 -11 -3 -6 1 4 -1 7 10 2 7 1 0 3 -6 -4 2 0 -1 -4 4
-2 -0 -1 -2 -2 14 2 1 1 1 -1 1 5 2 4 1 -1 1 -0 2 1 -2 5 -12 -9 -3 6 -4 3 0 -2 6 6 10 2 -2 5 -2 -6 -3 -2 1 3 1 -4 -5 7
-1 -2 -5 4 6 5 13 2 5 1 1 1 4 3 -0 1 2 1 1 -6 1 -3 -2 -7 -5 3 2 -2 4 -3 4 6 11 -1 2 4 -1 -8 0 1 2 2 2 -9 -8 -3 12
-3 2 -4 -2 2 -5 6 15 5 8 -1 3 3 7 0 1 5 2 -3 -3 -3 1 2 0 -7 4 -7 14 -7 -5 1 -5 -1 4 -0 -1 -5 2 3 1 6 -1 -0 -3 2 -5 -6
1 -4 -2 -1 -5 1 9 10 -2 9 11 4 6 8 2 5 4 4 -4 5 -4 -1 3 -1 -1 -4 -1 10 -3 -11 8 -19 6 -8 -1 -3 -11 2 3 0 2 5 -4 2 2 7 -2
-7 3 -3 -0 1 -3 -10 -3 15 -5 8 6 6 4 -0 8 -2 1 -5 -4 -1 2 0 1 5 0 1 -7 -3 -6 10 28 -3 -4 8 -15 1 3 6 -17 2 -17 2 2 1 2 11
2 -2 -1 1 -0 -5 2 -10 11 3 4 13 5 2 8 7 -4 5 2 -6 2 -4 -12 4 1 -1 2 3 -1 -0 2 12 -0 5 3 -10 2 1 -9 -4 -1 -1 -1 -1 0 5 9
-2 -4 5 3 -0 -2 1 5 10 -7 3 18 5 3 -0 11 -12 3 2 -7 -7 -1 -6 1 -0 2 -0 -0 1 2 0 6 -1 5 3 3 -3 -1 -2 1 2 3 4 0 5 8 -11
-1 -10 4 -2 -16 7 29 3 -2 -12 2 17 5 4 6 4 -5 -1 -1 -4 1 -6 -2 2 -0 2 1 -1 -2 -1 2 1 5 2 -0 -2 -6 -1 -2 -8 -8 -4 -8 -2 -4 -2 -5
1 2 6 -2 -10 1 -1 -3 -5 19 6 6 8 17 17 -6 2 5 -3 2 -10 -2 -2 -1 2 2 1 1 3 5 0 -1 -3 -3 -8 0 -3 2 0 -1 -3 -3 4 -27 3 -1 2
-1 7 6 7 -18 -11 6 -7 -14 -6 13 14 25 10 4 -1 4 7 0 -3 -1 -1 -2 -0 0 -0 0 -1 4 5 0 -6 -3 -3 -1 0 -1 0 -10 10 1 1 -7 7 4 1 1
3 -1 -1 -5 -16 47 -2 5 -11 20 7 8 15 4 -0 13 15 10 -1 -3 -0 0 -9 -2 -1 1 -2 -3 -2 -1 -5 -7 1 1 2 -2 5 3 -0 1 -9 8 7 5 1 2 1
-1 -4 -3 -1 -14 14 9 14 -0 27 22 29 2 1 9 5 1 -0 -0 -3 -1 -1 3 1 4 2 1 -0 0 1 -4 -2 -0 -3 -1 -6 -1 0 -13 -8 -1 -6 -5 -4 1 3 -2
5 1 -4 9 -20 18 10 0 32 -1 -1 8 -2 -2 44 -3 -1 1 1 -1 -1 3 -1 2 -0 -0 0 -1 -4 1 -0 -6 -3 -2 -7 -2 -2 0 5 11 5 -0 1 -2 -1 3 -3
3 0 -3 1 -7 24 11 -4 2 10 4 8 -8 0 11 14 2 -3 0 -3 1 -0 -2 1 -0 5 4 1 1 -1 1 1 2 -3 -2 1 1 -0 1 2 -4 4 3 1 -0 4 -4
3 -8 2 -4 2 27 -22 -40 -20 16 37 -2 1 2 -7 1 1 1 2 0 1 -0 0 2 1 2 -1 1 1 0 -0 2 7 -0 3 -2 2 2 -3 -2 3 -4 -2 -0 5 -6 -3
-5 -6 1 1 5 11 18 -4 5 -14 33 4 -11 -4 7 -0 3 6 -0 -1 -0 1 2 0 4 -1 2 1 -5 -2 -2 -1 -6 10 -1 1 -3 2 -2 2 -0 1 0 0 -0 0 0
2 -4 -4 0 2 -6 3 -12 -5 24 18 1 -0 7 -5 0 2 2 -4 -7 -8 3 -1 -5 -1 4 2 -7 1 3 -2 -3 -2 -7 -0 -1 1 -1 -0 -1 1 0 -10 -1 -1 -0 -3
-4 -0 -2 -3 1 -5 -4 -1 12 5 34 7 -10 0 -4 1 0 -3 1 -0 -1 -5 -4 -4 6 7 -8 3 10 -1 -5 -1 0 -0 -1 -1 -0 1 -0 -3 -4 -10 -0 -2 -3 -1 0
-0 -1 -6 -6 1 12 12 9 -1 8 0 7 0 -3 -4 -0 -3 3 -0 1 -0 2 1 2 3 -3 -2 1 -0 -0 -0 -2 1 -0 -1 -1 -1 -0 -1 -0 -8 -2 0 -1 -6 -8 -1
-2 -1 -3 0 0 -4 0 0 -13 -1 -2 9 3 2 -5 -3 -2 -1 1 0 -1 0 -0 -0 2 0 -1 0 -2 -1 -1 -1 -1 -2 -1 0 -2 -3 -2 -1 -2 -4 -1 0 -1 -5 0
3 -3 -3 0 0 0 5 -1 3 4 3 1 -0 -1 -1 -2 -8 4 -2 -2 2 -1 1 -0 1 0 -0 -0 -0 -0 0 -7 -1 -1 -0 0 1 -3 -0 -0 -9 -3 -1 0 -5 -13 -0
1 -0 -7 -1 1 8 2 -8 7 3 4 6 -6 2 0 -1 -6 4 0 -2 0 -1 -0 1 0 -0 2 1 1 -2 0 -2 -2 -3 -3 -4 -3 -0 1 1 -8 -1 -1 -5 -7 1 0
-3 -0 -5 -2 -6 2 -0 2 -11 6 4 6 5 -0 0 -1 -1 3 2 -1 -0 -1 -3 5 0 -1 -3 -0 1 0 -0 1 -3 -1 0 -1 -8 -8 -8 -12 -1 1 -1 1 -0 -3 0
Height
1494 1492 1489 1488 1487 1487 1486 1485 1485 1484 1484 1483 1482 1483 1483 1483 1484 1484 1485 1485 1485 1485 1485 1486 1486 1489 1491 1493 1487 1488 1489 1489 1490 1492 1495 1499 1501 1501 1502 1498 1498 1494 1494 1492 1490 1489 1487
1490 1487 1485 1483 1482 1481 1481 1480 1480 1480 1480 1480 1479 1480 1480 1480 1480 1482 1482 1483 1483 1484 1484 1485 1485 1487 1489 1488 1484 1486 1487 1489 1490 1491 1492 1495 1496 1498 1497 1496 1496 1490 1488 1485 1483 1483 1483
1484 1481 1479 1477 1476 1475 1475 1474 1475 1476 1475 1476 1476 1476 1476 1477 1477 1479 1480 1481 1481 1482 1483 1483 1484 1484 1485 1479 1481 1483 1485 1486 1488 1489 1491 1492 1494 1497 1493 1491 1489 1488 1485 1479 1476 1478 1479
1479 1475 1474 1471 1470 1469 1469 1469 1470 1471 1471 1472 1472 1472 1472 1473 1474 1476 1477 1479 1479 1480 1481 1482 1482 1482 1478 1474 1478 1479 1481 1483 1486 1487 1489 1490 1492 1491 1491 1490 1487 1487 1481 1482 1476 1477 1475
1474 1470 1468 1464 1464 1463 1462 1463 1464 1465 1466 1467 1467 1468 1468 1469 1471 1473 1474 1476 1477 1478 1479 1480 1481 1481 1474 1471 1471 1475 1479 1481 1483 1485 1487 1487 1490 1489 1488 1489 1492 1491 1488 1485 1480 1474 1475
1468 1465 1463 1459 1458 1457 1456 1456 1458 1459 1460 1461 1463 1463 1464 1466 1467 1469 1471 1473 1474 1476 1477 1478 1478 1483 1470 1468 1469 1471 1476 1479 1482 1484 1485 1486 1485 1485 1487 1488 1487 1490 1486 1483 1480 1470 1473
1465 1460 1457 1453 1452 1450 1448 1449 1451 1452 1454 1456 1457 1458 1460 1461 1463 1465 1469 1471 1475 1474 1472 1469 1468 1466 1464 1465 1468 1469 1473 1477 1481 1482 1482 1480 1482 1481 1487 1483 1484 1485 1484 1480 1471 1469 1468
1461 1455 1451 1448 1444 1441 1440 1440 1443 1445 1447 1449 1452 1453 1455 1457 1459 1461 1465 1465 1467 1468 1466 1465 1464 1463 1462 1463 1467 1468 1471 1475 1477 1478 1481 1482 1471 1477 1480 1483 1484 1485 1486 1477 1472 1468 1466
1456 1451 1447 1442 1438 1434 1432 1431 1434 1438 1441 1443 1446 1448 1450 1453 1456 1457 1459 1460 1464 1466 1465 1458 1455 1455 1458 1461 1461 1463 1467 1469 1471 1476 1476 1472 1466 1468 1474 1478 1480 1479 1480 1477 1477 1469 1463
1451 1446 1441 1437 1432 1429 1425 1423 1424 1429 1434 1438 1441 1443 1444 1448 1455 1453 1454 1457 1462 1463 1463 1454 1454 1452 1453 1456 1456 1457 1460 1464 1467 1468 1471 1468 1467 1469 1472 1471 1474 1476 1469 1473 1474 1478 1471
1447 1441 1436 1431 1427 1422 1419 1416 1416 1419 1426 1431 1434 1437 1439 1443 1446 1447 1450 1452 1460 1462 1464 1452 1451 1451 1451 1454 1453 1452 1456 1459 1457 1459 1464 1458 1458 1463 1466 1458 1471 1465 1469 1468 1470 1471 1470
1443 1437 1430 1425 1421 1416 1412 1410 1409 1412 1416 1424 1428 1432 1435 1440 1442 1446 1448 1450 1459 1463 1462 1446 1448 1450 1451 1451 1450 1450 1453 1456 1454 1456 1455 1455 1455 1457 1455 1459 1463 1464 1469 1469 1470 1471 1466
1439 1432 1425 1419 1413 1408 1405 1405 1401 1403 1409 1416 1420 1425 1429 1432 1435 1441 1445 1450 1461 1456 1439 1443 1445 1446 1446 1446 1448 1449 1451 1450 1449 1452 1451 1452 1455 1455 1455 1459 1459 1466 1474 1473 1471 1470 1447
1435 1428 1421 1414 1407 1402 1400 1397 1395 1397 1402 1408 1414 1419 1421 1426 1430 1438 1442 1450 1454 1433 1434 1438 1442 1443 1443 1442 1442 1443 1446 1445 1444 1450 1448 1455 1463 1449 1447 1451 1453 1457 1464 1464 1462 1445 1433
1431 1423 1416 1408 1401 1396 1390 1389 1388 1385 1395 1400 1407 1413 1414 1421 1427 1433 1439 1444 1438 1428 1429 1437 1441 1439 1439 1440 1442 1440 1440 1438 1436 1442 1449 1449 1444 1434 1436 1438 1446 1447 1457 1448 1453 1434 1442
1427 1420 1413 1404 1396 1389 1384 1383 1384 1380 1389 1394 1396 1405 1408 1415 1423 1429 1435 1431 1428 1425 1430 1434 1433 1435 1432 1433 1439 1437 1435 1426 1429 1427 1433 1437 1439 1429 1435 1441 1440 1438 1437 1458 1455 1437 1432
1424 1417 1410 1400 1389 1380 1377 1378 1377 1379 1384 1390 1393 1402 1404 1410 1419 1425 1425 1426 1423 1424 1428 1434 1430 1430 1431 1431 1434 1432 1424 1415 1418 1420 1427 1432 1439 1433 1438 1424 1419 1432 1429 1437 1442 1436 1420
1421 1414 1407 1398 1387 1379 1376 1371 1371 1371 1379 1386 1388 1396 1402 1407 1417 1419 1419 1419 1419 1422 1425 1426 1429 1427 1424 1419 1425 1422 1415 1410 1411 1415 1420 1429 1429 1422 1416 1411 1409 1416 1421 1423 1431 1422 1421
1417 1411 1404 1397 1386 1379 1371 1369 1367 1367 1369 1374 1383 1395 1400 1404 1408 1411 1414 1415 1416 1419 1418 1419 1420 1418 1411 1409 1417 1409 1408 1401 1408 1416 1422 1427 1422 1415 1403 1404 1397 1406 1409 1407 1409 1419 1399
1414 1407 1401 1394 1384 1375 1370 1365 1361 1362 1362 1369 1381 1389 1397 1401 1401 1406 1410 1410 1412 1413 1413 1413 1410 1410 1409 1406 1401 1399 1401 1401 1404 1411 1418 1424 1414 1405 1392 1388 1385 1387 1395 1407 1416 1413 1391
1411 1404 1397 1392 1384 1376 1369 1366 1363 1354 1361 1370 1375 1381 1386 1393 1400 1401 1404 1404 1405 1408 1408 1406 1405 1405 1401 1401 1397 1398 1394 1397 1404 1407 1415 1420 1407 1402 1397 1390 1386 1384 1387 1403 1415 1394 1384
1409 1403 1396 1391 1383 1373 1369 1356 1354 1353 1360 1367 1370 1375 1385 1389 1395 1400 1400 1398 1398 1401 1403 1396 1398 1393 1396 1398 1392 1392 1392 1393 1396 1407 1412 1412 1401 1391 1379 1376 1380 1384 1384 1390 1391 1383 1381
1405 1400 1395 1388 1381 1372 1365 1361 1360 1351 1360 1364 1369 1374 1377 1382 1388 1393 1392 1390 1387 1392 1393 1393 1394 1393 1392 1389 1389 1387 1384 1386 1385 1392 1397 1401 1398 1392 1387 1381 1384 1390 1381 1385 1382 1378 1379
1401 1397 1391 1386 1381 1377 1371 1363 1355 1354 1353 1362 1368 1373 1378 1380 1382 1384 1384 1385 1385 1384 1385 1385 1388 1393 1387 1385 1384 1385 1385 1386 1385 1388 1391 1396 1397 1390 1393 1386 1398 1375 1369 1370 1375 1374 1378
1399 1395 1389 1384 1378 1374 1369 1361 1356 1354 1358 1362 1367 1371 1374 1377 1380 1382 1382 1378 1376 1379 1381 1379 1379 1382 1383 1385 1385 1391 1394 1389 1391 1390 1389 1390 1394 1395 1397 1397 1385 1376 1372 1374 1377 1378 1375
1397 1392 1388 1384 1379 1374 1368 1361 1357 1355 1356 1360 1366 1369 1372 1376 1376 1377 1377 1376 1377 1378 1379 1374 1377 1379 1381 1383 1385 1389 1392 1393 1394 1390 1388 1387 1392 1397 1413 1405 1394 1377 1371 1371 1371 1385 1375
1393 1389 1384 1380 1375 1372 1366 1360 1358 1355 1358 1362 1364 1369 1372 1374 1374 1375 1377 1377 1375 1378 1377 1377 1375 1378 1380 1381 1381 1385 1385 1388 1389 1389 1392 1392 1394 1402 1401 1403 1393 1374 1370 1370 1381 1385 1373
1389 1385 1381 1377 1374 1368 1364 1360 1356 1353 1355 1359 1363 1366 1370 1371 1372 1373 1374 1374 1374 1375 1375 1376 1376 1376 1378 1379 1382 1378 1380 1383 1386 1385 1382 1387 1394 1397 1400 1402 1400 1370 1372 1374 1377 1375 1374
1387 1383 1380 1376 1373 1367 1362 1356 1354 1353 1353 1357 1361 1364 1367 1370 1370 1369 1370 1370 1371 1371 1373 1372 1371 1369 1371 1375 1378 1374 1373 1377 1380 1382 1380 1385 1381 1386 1387 1382 1372 1371 1373 1374 1374 1375 1378